RH
63 63 65 70 72 76 72 69 65 69 68 65 63 64 64 66 68 68 67 66 68 70
72 68 71 71 71 73 70 61 64 64 65 62 59 60 62 63 61 63 65 65 64 67
69 64 64 64 68 66 62 62 63 62 60 58 57 58 61 63 62 65 66 64 64 65
79 71 64 68 64 64 65 61 62 62 60 60 58 57 61 62 63 63 62 61 61 62
83 80 81 72 75 74 65 66 64 63 68 60 59 58 60 60 63 64 64 63 63 63
89 87 85 86 90 88 88 95 96 83 64 62 65 62 61 61 62 62 63 64 63 65
89 88 88 90 93 96 98 88 72 68 66 66 64 62 61 60 63 63 61 63 64 63
90 88 90 92 95 91 85 86 75 73 70 67 64 57 63 60 63 62 62 62 60 64
91 95 96 96 97 89 87 85 91 87 86 80 56 53 53 61 86 82 84 80 77 73
85 85 87 90 89 92 92 94 90 94 90 89 76 59 55 55 74 82 84 81 76 70
92 93 95 92 92 95 94 93 95 93 94 94 78 62 60 60 74 88 82 79 81 84
88 91 94 95 96 91 94 97 96 93 96 97 94 70 65 65 86 79 81 78 79 82
85 92 94 88 91 91 96 92 91 92 96 87 95 80 70 66 93 92 74 74 72 68
94 95 95 97 95 94 95 91 97 95 96 97 94 93 70 66 74 87 86 80 76 70
Wind_Speed
9 7 7 7 6 4 4 4 4 5 5 5 5 5 5 4 4 5 4 6 5 3
7 9 8 8 6 4 5 5 6 6 5 5 5 5 5 4 4 4 4 4 4 3
8 9 9 9 8 7 6 5 6 6 5 5 4 4 5 4 3 5 2 3 4 3
7 8 8 8 8 8 6 7 6 5 5 4 4 4 4 4 4 4 4 3 3 3
9 9 9 8 8 7 7 5 5 6 5 4 3 4 4 4 4 3 3 2 2 1
7 8 9 9 7 6 5 5 5 7 6 5 5 5 4 4 4 3 2 2 2 2
7 8 8 8 7 8 6 6 5 5 5 5 4 4 4 3 3 3 2 2 2 3
6 7 8 8 6 5 6 4 5 4 4 4 4 3 4 3 3 3 3 3 3 3
8 7 6 7 7 5 5 4 4 4 4 4 2 6 7 6 4 4 4 3 4 3
7 8 8 8 6 5 5 3 3 3 3 3 3 6 7 8 3 4 4 4 4 4
7 7 6 7 6 4 3 4 4 4 2 1 2 7 9 10 4 3 5 5 5 5
7 8 7 6 6 4 4 2 2 2 2 2 3 9 10 9 2 4 5 5 5 5
7 8 6 6 5 3 3 3 2 3 3 7 5 9 11 10 2 5 6 5 7 15
5 6 5 4 3 3 2 2 2 1 1 3 4 6 12 15 7 5 6 7 7 7
Wind_Direction
136 137 136 134 133 125 121 124 114 99 98 97 92 87 85 85 88 84 80 79 72 71
128 134 137 131 125 124 123 126 119 114 110 103 96 93 92 85 82 82 76 84 84 78
144 137 136 134 133 134 131 114 122 120 118 115 113 109 105 97 94 95 81 85 86 71
125 126 129 131 131 129 123 131 130 127 123 119 119 119 116 120 119 110 96 88 98 87
127 128 124 129 125 126 127 116 118 110 136 153 152 146 143 145 135 133 125 114 100 92
127 130 132 130 125 115 105 126 149 177 169 163 169 161 162 156 153 154 167 173 170 201
141 139 135 124 141 138 146 170 164 165 165 168 170 163 169 164 161 172 193 239 228 224
126 135 126 123 118 135 157 150 155 157 168 168 168 177 180 181 185 207 232 248 250 242
129 120 125 132 147 143 137 143 135 153 168 170 183 220 232 199 194 209 203 236 250 259
139 138 148 144 132 124 134 130 144 149 157 181 206 255 266 272 188 207 222 230 251 272
141 136 133 140 143 144 151 173 165 180 182 182 267 274 276 276 285 218 235 238 241 247
145 139 142 155 159 152 142 137 159 179 181 208 279 274 273 276 304 270 251 238 237 242
147 150 155 152 145 133 137 168 171 202 199 229 226 266 275 272 201 250 265 247 239 260
109 116 124 109 89 117 144 146 134 204 278 243 243 266 275 275 266 240 249 251 253 246